Regional Weather Roundup
Issued by NWS Kansas City/Pleasant Hill, MO

Home | Current Version | Previous Version | Graphics & Text | Print | Product List | Glossary Off
Versions: 1 2 3 4 5 6 7 8 9 10 11 12 13 14 15 16 17 18 19 20 21 22 23 24 25 26 27

000
ASUS43 KEAX 181610
RWREAX

WEATHER ROUNDUP FOR EASTERN KANSAS AND NORTHWEST MISSOURI
NATIONAL WEATHER SERVICE KANSAS CITY/PLEASANT HILL MO
1100 AM CDT FRI AUG 18 2017

KSZ040-057-103>105-MOZ028-029-037-043-181700-
...KANSAS CITY METROPOLITAN AREA...

CITY           SKY/WX    TMP DP  RH WIND       PRES   REMARKS
K.C. INTL      CLOUDY    75  65  70 S10       29.96F
K.C. DOWNTOWN  CLOUDY    76  64  66 SW8       29.96F
LEES SUMMIT    CLOUDY    73  66  78 SW6       30.00S
OLATHE - IXD   CLOUDY    72  65  78 S9        29.99F
OLATHE - OJC   CLOUDY    71  65  81 S7        30.00R
LAWRENCE       CLOUDY    73  66  78 CALM      29.97F

$$

MOZ001>008-011>017-020>025-030>033-038>040-044>046-053-054-181700-
...NORTHERN AND CENTRAL MISSOURI...

CITY           SKY/WX    TMP DP  RH WIND       PRES   REMARKS
ST. JOSEPH     CLOUDY    76  68  76 S12       29.94R
MOSBY          CLOUDY    77  63  61 SW8       29.96F
WARRENSBURG    PTSUNNY   77  66  69 S6        29.98R
WHITEMAN AFB   PTSUNNY   78  70  76 SW13      29.97S
CLINTON        MOSUNNY   72  66  83 SW7       30.01R
SEDALIA        MOSUNNY   80  68  66 SW7       30.00F
WARSAW         NOT AVBL
CHILLICOTHE      N/A     79  68  69 S5        29.94F
KIRKSVILLE     CLOUDY    82  60  47 SE8       29.97F

$$

MOZ041-047>049-056>058-063>065-088>090-097-181700-
...EASTERN AND SOUTHERN MISSOURI...

CITY           SKY/WX    TMP DP  RH WIND       PRES   REMARKS
ST. LOUIS INTL MOSUNNY   81  64  56 NW7       30.00F
SPIRIT OF STL  MOSUNNY   80  67  64 SW3       29.98F
COLUMBIA       SUNNY     80  65  59 CALM      29.99F
JEFFERSON CITY SUNNY     80  69  69 CALM      29.98F
ROLLA          SUNNY     79  64  60 NW8       30.03F
OSAGE BEACH    CLOUDY    78  65  63 SW5       30.02F
SPRINGFIELD    CLOUDY    74  70  87 S6        30.04S
BRANSON        MOSUNNY   79  73  83 W3        30.07F
JOPLIN         CLOUDY    79  77  94 SW8       30.03F
WEST PLAINS    SUNNY     80  64  58 SW7       30.07S

$$

IAZ060-094-KSZ022-034>040-054-083-096-NEZ052-066-093-181700-
...KANSAS...SOUTHEAST NEBRASKA AND IOWA...

CITY           SKY/WX    TMP DP  RH WIND       PRES   REMARKS
TOPEKA         PTSUNNY   78  67  68 S5        29.97S
MANHATTAN      SUNNY     80  66  62 SW6       29.98R
EMPORIA        MOSUNNY   77  65  66 VRB5      29.98F
CHANUTE        PTSUNNY   77  70  79 S9        29.99F
WICHITA        CLOUDY    82  66  58 S12       29.98F
OMAHA          MOSUNNY   80  62  54 NW6       29.94S
LINCOLN        SUNNY     78  62  57 VRB3      29.97F
FALLS CITY     SUNNY     82  64  54 SW8       29.92S
LAMONI         MOSUNNY   74  64  71 S7        29.93F
DES MOINES     CLOUDY    75  62  64 S5        29.92S

$$





USA.gov is the U.S. government's official web portal to all federal, state and local government web resources and services.